Stations météo

réclame
Mon MeteoGroup
Bournemouth Airport, Grande-Bretagne (3862): Température de l'air & dewpoint: 14.08.2018 18:00:00 - 20.08.2018 18:00:00 (BST)Bournemouth Airport, Grande-Bretagne (3862): Température de l'air -20cm & Température de l'air -100cm: 14.08.2018 18:00:00 - 20.08.2018 18:00:00 (BST)Bournemouth Airport, Grande-Bretagne (3862): Vitesse du vent: 14.08.2018 18:00:00 - 20.08.2018 18:00:00 (BST)Bournemouth Airport, Grande-Bretagne (3862): Direction du vent: 14.08.2018 18:00:00 - 20.08.2018 18:00:00 (BST)Bournemouth Airport, Grande-Bretagne (3862): reduced air pressure: 14.08.2018 18:00:00 - 20.08.2018 18:00:00 (BST)Bournemouth Airport, Grande-Bretagne (3862): visibility: 14.08.2018 18:00:00 - 20.08.2018 18:00:00 (BST)Bournemouth Airport, Grande-Bretagne (3862): Ensoleillement: 14.08.2018 18:00:00 - 20.08.2018 18:00:00 (BST)Bournemouth Airport, Grande-Bretagne (3862): Quantités de précipitations: 14.08.2018 18:00:00 - 20.08.2018 18:00:00 (BST)
Date & Time tt [°C] td [°C] tt -20cm [°C] tt -100cm [°C] ff [km/h] ff [knt] dd ppp [hPa] vv [km] sd [min] rr [mm]
20.08.2018 18:00:00 22,0 18,0 - - 18 10 WSW - 10 - 0,0
20.08.2018 17:00:00 23,2 18,0 - - 16 9 SW 1020,3 10 6 0,0
20.08.2018 16:00:00 23,3 18,0 - - 16 9 WSW 1020,5 10 18 0,0
20.08.2018 15:00:00 22,5 18,3 - - 16 9 SW 1020,8 10 0 0,0
20.08.2018 14:00:00 22,3 17,8 - - 11 6 SW 1020,9 10 6 0,0
20.08.2018 13:00:00 22,2 17,4 - - 9 5 S 1021,0 10 12 0,0
20.08.2018 12:00:00 20,5 17,8 - - 11 6 SSW 1021,4 10 0 0,0
20.08.2018 11:00:00 19,5 18,5 - - 8 4 WSW 1021,8 8 0 0,2
20.08.2018 10:00:00 19,2 17,9 19,0 17,7 11 6 WSW 1021,7 8 0 0,0
20.08.2018 09:00:00 18,6 17,6 - - 9 5 SW 1021,4 5 0 0,0
20.08.2018 08:00:00 18,5 17,0 - - 9 5 W 1021,4 10 0 0,0
20.08.2018 07:00:00 17,6 16,8 - - 8 4 W 1020,8 10 0 0,0
20.08.2018 06:00:00 16,4 15,6 - - 5 3 W 1020,6 10 0 0,0
20.08.2018 05:00:00 16,6 15,8 - - 5 3 W 1020,7 11 0 0,0
20.08.2018 04:00:00 16,6 15,6 - - 4 2 NW 1020,7 17 0 0,0
20.08.2018 03:00:00 16,7 15,5 - - 5 3 NW 1021,0 20 0 0,0
20.08.2018 02:00:00 16,8 15,4 - - 11 6 WNW 1020,8 15 0 0,0
20.08.2018 01:00:00 17,3 15,2 - - 9 5 W 1020,8 15 - 0,0
20.08.2018 00:00:00 18,9 16,2 - - 15 8 NW 1021,0 10 0 0,0
19.08.2018 23:00:00 19,4 16,7 - - 9 5 NW 1020,9 10 0 0,0
19.08.2018 22:00:00 20,2 17,3 - - 11 6 NW 1020,3 10 0 0,0
19.08.2018 21:00:00 20,5 17,8 - - 13 7 W 1019,7 10 0 0,0
19.08.2018 20:00:00 21,0 18,2 - - 16 9 - 1019,3 10 12 0,0
19.08.2018 19:00:00 22,1 18,8 - - 13 7 WSW 1019,0 10 36 0,0
19.08.2018 18:00:00 23,0 18,9 - - 22 12 WSW 1019,0 10 48 0,0
19.08.2018 17:00:00 24,5 19,0 - - 26 14 W 1018,9 10 60 0,0
19.08.2018 16:00:00 23,3 18,6 - - 26 14 WSW 1019,0 10 60 0,0
19.08.2018 15:00:00 23,1 18,7 - - 26 14 SW 1019,1 10 60 0,0
19.08.2018 14:00:00 23,8 18,1 - - 21 11 WSW 1019,1 10 54 0,0
19.08.2018 13:00:00 23,0 17,8 - - 28 15 - 1019,2 10 24 0,0
19.08.2018 12:00:00 20,4 17,2 - - 22 12 WSW 1019,5 10 0 0,0
19.08.2018 11:00:00 18,6 17,3 - - 22 12 WSW 1019,8 8 0 0,0
19.08.2018 10:00:00 18,3 16,9 18,5 17,7 21 11 WSW 1019,6 8 0 0,0
19.08.2018 09:00:00 17,9 16,2 - - 22 12 WSW 1019,6 8 0 0,0
19.08.2018 08:00:00 17,4 15,8 - - 18 10 WSW 1019,8 8 0 0,0
19.08.2018 07:00:00 17,4 14,9 - - 13 7 SW 1020,0 10 0 0,0
19.08.2018 06:00:00 17,4 14,8 - - 15 8 WSW 1020,0 10 0 0,0
19.08.2018 05:00:00 17,5 14,7 - - 24 13 WSW 1020,0 11 0 0,0
19.08.2018 04:00:00 17,3 14,9 - - 18 10 WSW 1020,7 10 0 0,0
19.08.2018 03:00:00 17,0 14,9 - - 15 8 WSW 1021,0 10 0 0,0
19.08.2018 02:00:00 17,5 15,1 - - 15 8 WSW 1021,4 11 0 0,0
19.08.2018 01:00:00 17,8 14,6 - - 18 10 WSW 1021,5 13 - 0,0
19.08.2018 00:00:00 17,9 14,8 - - 15 8 WSW 1021,7 12 0 0,0
18.08.2018 23:00:00 18,0 15,4 - - 18 10 WSW 1022,0 10 0 0,0
18.08.2018 22:00:00 18,1 15,5 - - 16 9 WSW 1021,9 10 0 0,0
18.08.2018 21:00:00 18,2 15,1 - - 13 7 WSW 1022,1 10 0 0,0
18.08.2018 20:00:00 18,6 14,8 - - 18 10 WSW 1021,7 10 0 0,0
18.08.2018 19:00:00 19,2 14,4 - - 16 9 WSW 1021,7 10 0 0,0
18.08.2018 18:00:00 20,2 15,0 - - 18 10 WSW 1021,5 10 0 0,0
18.08.2018 17:00:00 20,5 15,0 - - 18 10 WSW 1021,6 10 0 0,0
18.08.2018 16:00:00 20,1 14,3 - - 18 10 SW 1021,7 10 0 0,0
18.08.2018 15:00:00 21,1 14,2 - - 18 10 WSW 1021,9 10 6 0,0
18.08.2018 14:00:00 20,5 13,7 - - 16 9 W 1022,2 10 0 0,0
18.08.2018 13:00:00 20,6 15,2 - - 16 9 WSW 1022,3 10 0 0,0
18.08.2018 12:00:00 18,6 14,9 - - 18 10 W 1022,3 10 0 0,0
18.08.2018 11:00:00 19,1 14,4 - - 18 10 W 1022,2 10 0 0,0
18.08.2018 10:00:00 18,5 14,4 18,5 17,7 16 9 W 1022,3 10 0 0,0
18.08.2018 09:00:00 17,7 13,9 - - 13 7 WSW 1021,9 10 0 0,0
18.08.2018 08:00:00 17,3 14,9 - - 13 7 W 1021,6 10 0 0,0
18.08.2018 07:00:00 16,8 14,8 - - 13 7 WSW 1021,4 10 0 0,0
18.08.2018 06:00:00 16,7 14,6 - - 15 8 WSW 1021,3 10 0 0,0
18.08.2018 05:00:00 16,6 14,4 - - 13 7 WSW 1021,1 10 0 0,0
18.08.2018 04:00:00 16,5 14,0 - - 11 6 WSW 1021,3 10 0 0,0
18.08.2018 03:00:00 16,5 13,7 - - 11 6 WSW 1021,3 16 0 0,0
18.08.2018 02:00:00 15,2 13,0 - - 13 7 W 1021,5 20 0 0,0
18.08.2018 01:00:00 15,5 12,3 - - 9 5 WSW 1021,9 20 - 0,0
18.08.2018 00:00:00 15,7 12,9 - - 4 2 WSW 1022,2 10 0 0,0
17.08.2018 23:00:00 15,4 13,3 - - 8 4 W 1022,2 10 0 0,0
17.08.2018 22:00:00 16,3 12,4 - - 8 4 WSW 1022,0 10 0 0,0
17.08.2018 21:00:00 17,7 13,4 - - 8 4 W 1021,5 10 0 0,0
17.08.2018 20:00:00 18,2 12,6 - - 13 7 W 1021,2 10 12 0,0
17.08.2018 19:00:00 19,4 12,1 - - 15 8 W 1020,9 10 30 0,0
17.08.2018 18:00:00 19,7 12,2 - - 22 12 WSW 1020,8 10 42 0,0
17.08.2018 17:00:00 19,5 12,4 - - 21 11 WSW 1020,6 10 30 0,0
17.08.2018 16:00:00 19,8 12,0 - - 21 11 WSW 1020,9 10 18 0,0
17.08.2018 15:00:00 19,7 11,9 - - 15 8 WSW 1021,1 10 12 0,0
17.08.2018 14:00:00 19,6 12,6 - - 16 9 SW 1021,4 10 6 0,0
17.08.2018 13:00:00 19,6 12,7 - - 15 8 WSW 1021,4 10 6 0,0
17.08.2018 12:00:00 19,0 11,1 - - 13 7 WNW 1021,4 10 30 0,0
17.08.2018 11:00:00 18,4 12,1 - - 11 6 W 1021,6 10 18 0,0
17.08.2018 10:00:00 17,4 13,3 18,4 17,7 8 4 WNW 1021,1 10 24 0,0
17.08.2018 09:00:00 15,6 13,2 - - 5 3 - 1020,9 10 60 0,0
17.08.2018 08:00:00 13,2 13,1 - - 4 2 - 1020,3 10 60 0,0
17.08.2018 07:00:00 8,5 8,3 - - 2 1 - 1019,8 10 24 0,0
17.08.2018 06:00:00 6,9 6,7 - - 4 2 N 1019,2 0,5 0 0,0
17.08.2018 05:00:00 7,8 7,5 - - 4 2 N 1018,7 9 0 0,0
17.08.2018 04:00:00 9,1 8,8 - - 4 2 NW 1018,5 8 0 0,0
17.08.2018 03:00:00 8,1 7,5 - - 4 2 NW 1018,4 21 0 0,0
17.08.2018 02:00:00 8,6 8,0 - - 2 1 WNW 1018,1 18 0 0,0
17.08.2018 01:00:00 10,3 9,6 - - 2 1 NNE 1018,1 21 - 0,0
17.08.2018 00:00:00 10,9 9,1 - - 5 3 WSW 1018,1 20 0 0,0
16.08.2018 23:00:00 12,4 9,8 - - 8 4 WSW 1017,6 10 0 0,0
16.08.2018 22:00:00 13,1 9,9 - - 13 7 WNW 1017,0 10 0 0,0
16.08.2018 21:00:00 14,4 10,3 - - 9 5 WNW 1016,3 10 18 0,0
16.08.2018 20:00:00 17,4 10,9 - - 13 7 NW 1015,8 10 42 0,0
16.08.2018 19:00:00 18,2 13,9 - - 13 7 WSW 1015,1 10 6 0,0
16.08.2018 18:00:00 18,1 13,6 - - 18 10 WSW 1014,9 10 6 0,2
16.08.2018 17:00:00 18,0 14,4 - - 18 10 SW 1014,7 10 12 0,0
16.08.2018 16:00:00 19,5 14,4 - - 13 7 WSW 1014,4 10 12 0,0
16.08.2018 15:00:00 19,0 14,3 - - 13 7 SSW 1014,4 10 12 0,0
16.08.2018 14:00:00 18,1 14,7 - - 8 4 WSW 1014,5 10 0 0,0
16.08.2018 13:00:00 15,9 14,5 - - 8 4 W 1014,4 10 0 0,2
16.08.2018 12:00:00 14,1 13,2 - - 4 2 SW 1014,3 10 0 3,4
16.08.2018 11:00:00 14,3 13,2 - - 13 7 NW 1014,2 5 0 2,6
16.08.2018 10:00:00 16,9 16,4 19,2 17,9 15 8 SW 1013,4 4,0 0 2,2
16.08.2018 09:00:00 17,3 16,8 - - 18 10 WSW 1013,2 5 0 3,0
16.08.2018 08:00:00 17,3 16,7 - - 21 11 SW 1013,1 4,3 0 1,2
16.08.2018 07:00:00 17,1 16,6 - - 21 11 SW 1013,4 2,0 0 1,0
16.08.2018 06:00:00 17,5 16,0 - - 24 13 SW 1013,4 4,4 0 0,0
16.08.2018 05:00:00 17,5 16,3 - - 15 8 SW 1013,8 13 0 0,0
16.08.2018 04:00:00 17,5 16,2 - - 16 9 SW 1014,3 7 0 0,0
16.08.2018 03:00:00 17,6 16,3 - - 18 10 SW 1015,1 13 0 0,0
16.08.2018 02:00:00 17,4 16,4 - - 16 9 SW 1015,4 9 0 0,0
16.08.2018 01:00:00 17,8 15,7 - - 16 9 SW 1016,0 13 - 0,0
16.08.2018 00:00:00 18,3 15,7 - - 22 12 SW 1016,3 10 0 0,0
15.08.2018 23:00:00 18,4 15,9 - - 21 11 WSW 1016,7 10 0 0,0
15.08.2018 22:00:00 18,4 16,2 - - 16 9 SW 1017,1 10 0 0,0
15.08.2018 21:00:00 18,4 15,7 - - 18 10 SW 1017,2 10 0 0,0
15.08.2018 20:00:00 18,5 15,2 - - 21 11 SW 1017,1 10 18 0,0
15.08.2018 19:00:00 19,9 14,9 - - 24 13 SW 1017,1 10 30 0,0
15.08.2018 18:00:00 20,6 14,7 - - 24 13 WSW 1017,5 10 42 0,0
15.08.2018 17:00:00 20,4 15,0 - - 22 12 SW 1018,0 10 0 0,0
15.08.2018 16:00:00 20,4 15,0 - - 22 12 WSW 1018,4 10 6 0,0
15.08.2018 15:00:00 21,3 14,8 - - 22 12 WSW 1018,6 10 0 0,0
15.08.2018 14:00:00 21,4 15,2 - - 22 12 WSW 1019,1 10 0 0,0
15.08.2018 13:00:00 21,3 14,8 - - 24 13 WSW 1019,2 10 0 0,0
15.08.2018 12:00:00 21,7 15,0 - - 24 13 WSW 1019,2 10 18 0,0
15.08.2018 11:00:00 21,1 14,7 - - 21 11 WSW 1019,3 10 54 0,0
15.08.2018 10:00:00 20,1 15,2 19,0 17,9 18 10 WSW 1019,4 10 0 0,0
15.08.2018 09:00:00 18,9 14,7 - - 15 8 WSW 1019,4 10 0 0,0
15.08.2018 08:00:00 18,1 14,3 - - 11 6 W 1019,3 10 0 0,0
15.08.2018 07:00:00 17,5 13,9 - - 11 6 W 1019,1 10 0 0,0
15.08.2018 06:00:00 17,2 13,4 - - 13 7 W 1018,9 10 0 0,0
15.08.2018 05:00:00 17,3 13,8 - - 16 9 W 1019,0 16 0 0,0
15.08.2018 04:00:00 17,3 13,7 - - 18 10 W 1019,1 19 0 0,0
15.08.2018 03:00:00 17,6 14,0 - - 15 8 W 1019,1 20 0 0,0
15.08.2018 02:00:00 17,6 14,3 - - 11 6 W 1019,1 20 0 0,0
15.08.2018 01:00:00 17,8 14,7 - - 13 7 W 1019,3 19 - 0,0
15.08.2018 00:00:00 17,9 14,2 - - 13 7 WNW 1019,3 10 0 0,0
14.08.2018 23:00:00 16,2 14,8 - - 5 3 W 1019,5 10 0 0,0
14.08.2018 22:00:00 16,7 13,8 - - 9 5 WNW 1019,3 10 0 0,0
14.08.2018 21:00:00 19,3 14,9 - - 18 10 WNW 1019,0 10 6 0,0
14.08.2018 20:00:00 20,6 15,4 - - 21 11 W 1018,2 10 30 0,0
14.08.2018 19:00:00 22,7 15,6 - - 16 9 W 1017,6 10 18 0,0
14.08.2018 18:00:00 22,4 16,7 - - 18 10 WSW 1017,7 10 18 0,0

tt = Température de l'air
td = dewpoint
tt -20cm = Température de l'air -20cm
tt -100cm = Température de l'air -100cm
ff = Vitesse du vent
dd = Direction du vent
ppp = reduced air pressure
vv = visibility
sd = Ensoleillement
rr = Quantités de précipitations

stations d'obs. à proximité